STARLINK-32200 (60258 NORAD) Tracking and Keplerian Element Data

This shows tracking and keplerian element data for the satellite.

Feedback or suggestion? Click here.




ElementValue
Catalog60258
NameSTARLINK-32200
Epoch Orbit1315
Epoch Day286.70254299
Epoch Year2024
RAAN276.9398
Inclination53.1587
Eccentricity0.0001637
Argument of Perigee90.1069
Mean Anonmoly270.0123
Mean Motion15.39642532
Decay Rate0.0002638
L11 60258U 24131D 24286.70254299 .00026380 00000+0 66669-3 0 9996
L22 60258 53.1587 276.9398 0001637 90.1069 270.0123 15.39642532 13153



Live tracking and technical data element details for STARLINK-32200 (NORAD 60258). STARLINK-32200 can be tracked NOW for your location showing map with azimuth and elevation plus other details from your city location.







IsCatalogInMostPopularTable: catalog: 60258, numindb: 12
Update: records affected: 1



GetName: 60258 STARLINK-32200

Hit Count: updated at: Thu, 23 Jan 2025 15:22:28 GMT